Regional Weather Roundup
Issued by NWS

Home | Current Version | Previous Version | Graphics & Text | Print | Product List | Glossary On
Versions: 1 2 3 4 5 6 7 8 9 10 11 12 13 14 15 16 17 18 19 20 21 22 23 24 25 26 27 28 29 30 31 32 33 34 35 36 37 38 39 40 41 42 43 44 45 46 47 48 49 50
000
ASUS43 KDTX 242201
RWRMI
MICHIGAN HOURLY REGIONAL WEATHER ROUNDUP
NATIONAL WEATHER SERVICE DETROIT/PONTIAC MI
500 PM EST SAT JAN 24 2015

NOTE: "FAIR" INDICATES FEW OR NO CLOUDS BELOW 12,000 FEET WITH NO
SIGNIFICANT WEATHER AND/OR OBSTRUCTION TO VISIBILITY.

MIZ047>049-052>055-059>063-066>070-074>076-081>083-242300-
SOUTHEAST LOWER MICHIGAN

CITY           SKY/WX    TMP DP  RH WIND       PRES   REMARKS
ADRIAN         CLOUDY    36  29  75 W8        29.62R WCI  30
ALMA           CLOUDY    37  32  83 W7        29.56S WCI  31
ANN ARBOR      CLOUDY    37  30  75 W10       29.58R WCI  30
BAD AXE        CLOUDY    35  32  88 W9        29.51R WCI  28
CARO           CLOUDY    36  31  83 W7        29.53R WCI  30
DETROIT CITY   CLOUDY    37  29  72 W7        29.57R HAZE    WCI  32
DETROIT        CLOUDY    35  29  78 SW8       29.59R HAZE    WCI  29
FLINT          CLOUDY    38  30  73 W12       29.55S WCI  30
GROSSE ILE     CLOUDY    34  28  80 SW7       29.58R HAZE    WCI  28
HILLSDALE      CLOUDY    36  31  81 W10       29.60R WCI  29
HOWELL         CLOUDY    36  30  80 W8        29.56R WCI  29

CITY           SKY/WX    TMP DP  RH WIND       PRES   REMARKS
JACKSON        CLOUDY    37  29  72 W8        29.58R WCI  31
LAMBERTVILLE   CLOUDY    34  30  86 W6        29.62R HAZE    WCI  29
LANSING        CLOUDY    37  30  75 W12       29.58R WCI  29
LAPEER         CLOUDY    36  30  79 W8        29.54R WCI  29
MASON          CLOUDY    36  29  78 W7        29.57S WCI  30
MONROE         CLOUDY    34  30  86 SW8       29.59R FOG     WCI  27
MT. CLEMENS    CLOUDY    36  30  79 W7        29.54R HAZE    WCI  30
PONTIAC        CLOUDY    36  29  75 W16         N/A  WCI  26
PORT HOPE        N/A     36  30  79 W7        29.48R WCI  30
PORT HURON     CLOUDY    34  30  86 SW3       29.55R FOG
TRI CITIES     CLOUDY    38  30  73 W12       29.54S WCI  30
TROY           CLOUDY    39  31  73 W6        29.57S WCI  34
SAGINAW HB     CLOUDY    36  32  87 W9        29.54R WCI  29
$$
MIZ043>046-050>051-056>058-064>065-071>073-077>080-242300-
SOUTHWEST LOWER MICHIGAN

CITY           SKY/WX    TMP DP  RH WIND       PRES   REMARKS
BATTLE CREEK   CLOUDY    39  30  70 W13       29.60S WCI  31
BENTON HARBOR  CLOUDY    37  31  78 W9        29.64R WCI  30
BIG RAPIDS     CLOUDY    37  32  85 W8        29.55R WCI  30
COLDWATER      CLOUDY    36  30  80 W8        29.61S WCI  29
FREMONT        CLOUDY    36  32  85 W6        29.58R WCI  31
HOLLAND        CLOUDY    38  32  79 W12       29.62R WCI  30
GRAND RAPIDS   CLOUDY    36  32  85 W13       29.60R WCI  27
IONIA          CLOUDY    38  32  79 W13       29.57S WCI  30
KALAMAZOO      LGT RAIN  36  31  82 W13       29.62R WCI  27
LUDINGTON      CLOUDY    38  34  85 NW5       29.58R WCI  34
MARSHALL       CLOUDY    36  30  79 W8G16     29.59S WCI  30
MOUNT PLEASANT CLOUDY    37  32  84 W6        29.54S WCI  32
MUSKEGON       CLOUDY    37  33  85 W7        29.61R WCI  32
SOUTH HAVEN    CLOUDY    38  33  82 W5        29.63R WCI  34
$$
MIZ016>042-242300-
NORTHERN LOWER MICHIGAN

CITY           SKY/WX    TMP DP  RH WIND       PRES   REMARKS
ALPENA         CLOUDY    33  27  78 NW15      29.51R WCI  23
BEAVER ISLAND  CLOUDY    28  23  81 NW10G17   29.59R WCI  19
BELLAIRE       CLOUDY    33  28  80 N5        29.57R WCI  29
CADILLAC       CLOUDY    35  28  77 W8        29.52R WCI  28
CHARLEVOIX     CLOUDY    31  28  88 N14       29.60R WCI  20
FRANKFORT      CLOUDY    37  32  82 N9        29.57R WCI  30
GAYLORD        CLOUDY    29  24  82 NW12G20   29.52R WCI  19
GRAYLING       CLOUDY    33  31  92 NW10      29.52R WCI  25
HARBOR SPRINGS CLOUDY    31  24  77 NW9G20    29.56R WCI  23
HOUGHTON LAKE  MOCLDY    33  30  88 NW9       29.51R WCI  25
MANISTEE       CLOUDY    37  32  81 W8        29.58R WCI  31
OSCODA         CLOUDY    35  32  89 W6        29.50R WCI  30
PELLSTON       CLOUDY    30  24  78 NW15      29.56R WCI  19
ROGERS CITY    PTCLDY    31  25  78 NW13G21   29.53R WCI  22
TRAVERSE CITY  FLURRIES  35  29  78 N9        29.56R WCI  28
$$
MIZ007>008-015-242300-
EASTERN UPPER MICHIGAN

CITY           SKY/WX    TMP DP  RH WIND       PRES   REMARKS
KINROSS        CLOUDY    23  19  86 NW16G25   29.54R WCI  10
MACKINAC ISLAN CLOUDY    29  22  76 NW14G23   29.55R WCI  18
NEWBERRY       CLOUDY    23  18  80 NW12G18   29.58R WCI  12
S. S. MARIE    CLOUDY    22  14  71 NW14G24   29.55R WCI   9
MUNISING         N/A     25  16  68 N16       29.65R WCI  12
$$
MIZ004>006-011>014-085-242300-
CENTRAL UPPER MICHIGAN

CITY           SKY/WX    TMP DP  RH WIND       PRES   REMARKS
MANISTIQUE     CLOUDY    26  22  83 N16G22    29.61R WCI  14
ESCANABA       CLOUDY    28  19  69 N13G20    29.62R WCI  18
MENOMINEE      CLOUDY    34  28  80 E15G21    29.59R WCI  24
SAWYER-GWINN   CLOUDY    21  18  86 N17G25    29.62R WCI   7
$$
MIZ001>003-009>011-084-242300-
WESTERN UPPER MICHIGAN

CITY           SKY/WX    TMP DP  RH WIND       PRES   REMARKS
IRON MOUNTAIN  CLOUDY    29  23  78 N8        29.59R WCI  21
HOUGHTON       LGT SNOW  16   9  74 N12       29.68R WCI   3
COPPER HARBOR    N/A     19  12  74 NE16G23   29.71R WCI   4
IRONWOOD       CLOUDY    25  21  86 E12       29.61R WCI  14
$$

ABBREVIATIONS USED IN REMARKS
   TC - TEMPERATURE IN CELSIUS
  WCI - WIND CHILL INDEX
   HX - HEAT INDEX
  VSB - VISIBILITY




USA.gov is the U.S. government's official web portal to all federal, state and local government web resources and services.